EW5738 Weather Reports


Display with metric or nautical units.
time (UTC)temp
F
wind
direction
speed
MPH
gust
MPH
rain 1hr
in
rain 24hr
in
rain mn
in
humidity
%
barometer
mb
20200531160024 57 43 0.0 0.0 0.00 0.04 0.00 91 1019.1
20200531154602 57 43 0.0 0.0 0.00 0.04 0.00 91 1019.1
20200531153022 58 43 0.0 0.0 0.00 0.04 0.00 91 1019.2
20200531151521 58 43 0.0 0.0 0.00 0.04 0.00 90 1019.4
20200531150019 58 43 0.0 0.0 0.00 0.04 0.00 90 1019.5
20200531144525 58 43 0.0 0.0 0.00 0.04 0.00 90 1019.7
20200531143028 58 43 0.0 0.0 0.00 0.04 0.00 90 1019.7
20200531141509 58 43 0.0 0.0 0.00 0.04 0.00 90 1019.8
20200531140047 57 43 0.0 0.0 0.00 0.04 0.04 90 1019.9
20200531134502 58 43 0.0 0.0 0.00 0.04 0.04 90 1019.9
20200531133024 58 43 0.0 0.0 0.00 0.04 0.04 90 1020.0
20200531131746 58 43 0.0 0.0 0.00 0.04 0.04 90 1020.3
20200531130141 58 43 0.0 0.0 0.00 0.04 0.04 90 1020.4
20200531124814 59 43 0.0 0.0 0.00 0.04 0.04 90 1020.4
20200531123130 59 43 0.0 0.0 0.00 0.04 0.04 90 1020.7
20200531121757 59 43 0.0 0.0 0.00 0.04 0.04 90 1020.8
20200531120300 59 43 0.0 0.0 0.00 0.04 0.04 90 1020.9
20200531114659 59 43 0.0 0.0 0.00 0.04 0.04 90 1020.8
20200531113205 59 43 0.0 0.0 0.00 0.04 0.04 90 1020.9
20200531111804 59 43 0.0 0.0 0.00 0.04 0.04 90 1021.0
20200531110231 59 43 0.0 0.0 0.00 0.04 0.04 90 1021.0
20200531104707 59 43 0.0 0.0 0.00 0.04 0.04 90 1021.1
20200531103154 60 43 0.0 0.0 0.00 0.04 0.04 90 1021.1
20200531101659 60 43 0.0 0.0 0.00 0.04 0.04 89 1021.1
20200531100154 62 43 0.0 0.0 0.00 0.04 0.04 89 1021.2
20200531094651 62 43 0.0 0.0 0.00 0.04 0.04 89 1021.2
20200531093217 62 43 0.0 0.0 0.00 0.04 0.04 89 1021.2
20200531091645 62 43 0.0 0.0 0.00 0.04 0.04 88 1021.2
20200531090219 62 43 0.0 0.0 0.00 0.04 0.04 88 1021.0
20200531084627 63 43 0.0 0.0 0.00 0.04 0.04 88 1021.1
20200531083139 63 43 0.0 0.0 0.00 0.04 0.04 87 1021.1
20200531081727 63 43 0.0 0.0 0.00 0.04 0.04 87 1021.0
20200531080119 64 43 0.0 0.0 0.00 0.04 0.04 86 1020.8
20200531074608 64 43 0.0 0.0 0.00 0.04 0.04 85 1020.7
20200531073122 65 44 0.0 0.0 0.00 0.04 0.04 84 1020.4
20200531071642 66 44 0.0 2.0 0.00 0.04 0.04 83 1020.4
20200531070114 66 44 0.0 0.0 0.00 0.04 0.04 81 1020.2
20200531064620 67 42 0.0 5.0 0.00 0.04 0.04 76 1020.0
20200531063139 68 44 0.0 3.0 0.00 0.04 0.04 75 1019.9
20200531061602 69 44 0.0 6.0 0.00 0.04 0.04 73 1019.8
20200531060105 70 28 0.0 0.0 0.00 0.04 0.04 68 1019.5
20200531054719 70 13 0.0 2.0 0.00 0.04 0.04 66 1019.6
20200531053106 71 313 0.0 0.0 0.00 0.04 0.04 67 1019.5
20200531051603 71 153 0.0 0.0 0.00 0.04 0.04 67 1019.5
20200531050113 70 153 0.0 0.0 0.00 0.04 0.04 68 1019.6
20200531044615 71 153 0.0 0.0 0.00 0.04 0.04 67 1019.9
20200531043331 70 153 0.0 5.0 0.00 0.04 0.04 68 1019.9
20200531041606 71 153 0.0 6.0 0.00 0.04 0.04 68 1020.1
20200531040112 70 150 0.0 5.0 0.00 0.04 0.04 68 1020.4
20200531034741 70 152 0.0 0.0 0.00 0.04 0.04 71 1020.5
20200531033039 70 152 0.0 0.0 0.00 0.04 0.04 71 1020.6
20200531031546 69 152 0.0 0.0 0.00 0.04 0.04 73 1020.7
20200531030020 68 151 0.0 0.0 0.00 0.04 0.04 74 1021.0
20200531024520 68 151 0.0 0.0 0.00 0.04 0.04 75 1021.2
20200531023020 68 152 0.0 0.0 0.00 0.04 0.04 74 1021.4
20200531021515 69 161 0.0 0.0 0.00 0.04 0.04 72 1021.8
20200531020027 69 161 0.0 1.0 0.00 0.04 0.04 72 1022.1
20200531014529 69 161 0.0 1.0 0.00 0.04 0.04 72 1022.4
20200531013016 70 162 0.0 6.0 0.00 0.04 0.04 72 1022.8
20200531011526 69 160 1.0 7.0 0.00 0.04 0.04 72 1022.9
20200531010030 69 168 0.0 6.0 0.00 0.04 0.04 72 1023.1
20200531004506 68 159 0.0 7.0 0.00 0.04 0.04 75 1023.3
20200531003006 68 154 1.0 7.0 0.00 0.04 0.04 76 1023.4
20200531001505 68 164 0.0 5.0 0.00 0.04 0.04 75 1023.4
20200531000008 67 166 0.0 6.0 0.00 0.04 0.04 77 1023.5
20200530234715 66 160 0.0 0.0 0.00 0.04 0.04 81 1023.6
20200530233135 65 160 0.0 5.0 0.00 0.04 0.04 80 1023.7
20200530231737 65 156 3.0 8.0 0.00 0.04 0.04 82 1023.7
20200530230119 65 178 0.0 4.0 0.00 0.04 0.04 83 1023.6
20200530224710 64 182 0.0 3.0 0.00 0.04 0.04 85 1023.7
20200530223210 64 182 0.0 0.0 0.00 0.04 0.04 87 1023.6
20200530221718 62 182 0.0 0.0 0.00 0.04 0.04 88 1023.4
20200530220145 61 182 0.0 0.0 0.00 0.04 0.04 89 1023.3
20200530214702 60 182 0.0 1.0 0.00 0.04 0.04 89 1023.2
20200530213100 59 182 0.0 0.0 0.00 0.04 0.04 90 1023.1
20200530211613 59 182 0.0 0.0 0.00 0.04 0.04 90 1023.2
20200530210128 59 182 0.0 0.0 0.00 0.04 0.04 90 1023.1
20200530204638 58 182 0.0 0.0 0.00 0.04 0.04 90 1023.0
20200530203120 58 182 0.0 0.0 0.00 0.04 0.04 90 1022.8
20200530201550 58 182 0.0 0.0 0.00 0.04 0.04 90 1022.9
20200530200046 58 182 0.0 0.0 0.00 0.04 0.04 90 1023.0
20200530194540 58 182 0.0 0.0 0.00 0.04 0.04 90 1022.7
20200530193119 58 182 0.0 0.0 0.00 0.04 0.04 90 1022.5
20200530191602 58 182 0.0 0.0 0.00 0.04 0.04 90 1022.2
20200530190033 59 182 0.0 0.0 0.00 0.04 0.04 90 1022.0
20200530184526 58 182 0.0 0.0 0.00 0.04 0.04 90 1022.1
20200530183033 59 182 0.0 0.0 0.00 0.04 0.04 89 1021.8
20200530181521 59 182 0.0 4.0 0.00 0.04 0.04 89 1021.8
20200530180053 59 184 0.0 8.0 0.00 0.04 0.04 89 1021.8
20200530174531 59 172 1.0 5.0 0.00 0.04 0.04 90 1021.9
20200530173027 59 186 0.0 3.0 0.01 0.04 0.04 89 1021.8
20200530171613 59 169 0.0 4.0 0.04 0.04 0.04 89 1021.8
20200530170024 59 140 0.0 0.0 0.04 0.04 0.04 89 1022.1
20200530164519 59 130 0.0 0.0 0.04 0.04 0.04 88 1022.5
20200530163008 60 126 0.0 0.0 0.03 0.03 0.03 86 1022.6
20200530161507 59 48 0.0 2.0 0.00 0.00 0.00 85 1022.9